User: anonymous   Login
Location: Unspecified
(0.0000°N, 0.0000°E)
Time: 15:32:59
(UTC+00:00)
Language:

DOVE 2 - Orbit

View from above orbital plane
View from above orbital plane
View from above satellite
View from above satellite

Ground track
Ground track

The orbit data is extracted from the following two-line orbital elements,

1 39132U 13015C   18349.46524142  .00000232  00000-0  27023-4 0  9996
2 39132  64.8764 342.9317 0003696 243.4370 280.4796 15.07155768310804
Epoch (UTC): 15 December 2018 11:09:56
Eccentricity: 0.0003696
inclination: 64.8764°
perigee height: 542 km
apogee height: 547 km
right ascension of ascending node: 342.9317°
argument of perigee: 243.4370°
revolutions per day: 15.07155768
mean anomaly at epoch: 280.4796°
orbit number at epoch: 31080

The dashed part of the orbit path shows where the satellite is in the earth's shadow,  

DLR